Weather History for Tallahassee, FL

Change the Weather History Date:

Tuesday, February 7, 2012

  Actual Average Record
Temperature  
Mean Temperature 57 °F 53 °F  
Max Temperature 68 °F 66 °F 82 °F (1957)
Min Temperature 46 °F 41 °F 21 °F (1996)
Degree Days  
Heating Degree Days 8    
Month to date heating degree days 21  
Since 1 July heating degree days 832  
Cooling Degree Days 0    
Month to date cooling degree days 6  
Year to date cooling degree days 19  
Growing Degree Days 7 (Base 50)    
Moisture  
Dew Point 53 °F    
Average Humidity 74    
Maximum Humidity 93    
Minimum Humidity 55    
Precipitation  
Precipitation T in 0.16 in 5.10 in (1915)
Month to date precipitation 0.02 1.10  
Year to date precipitation 2.87 5.44  
Sea Level Pressure  
Sea Level Pressure 30.12 in    
Wind  
Wind Speed 5 mph (NE)    
Max Wind Speed 9 mph    
Max Gust Speed 15 mph    
Visibility 10 miles    
Events      
T = Trace of Precipitation, MM = Missing Value Source: NWS Daily Summary

Daily Weather History Graph

Daily Weather History Graph

Search for Another Location

Airport:

Trip Planner

Search our weather history database for the weather conditions in past years. The results will help you decide how hot, cold, wet, or windy it might be!

Date:

Astronomy

Feb. 07, 2012 Rise Set
Actual Time 7:24 AM EST 6:18 PM EST
Civil Twilight 6:59 AM EST 6:43 PM EST
Nautical Twilight 6:31 AM EST 7:12 PM EST
Astronomical Twilight 6:03 AM EST 7:40 PM EST
Moon 6:24 PM EST (2/7) 6:55 AM EST (2/7)
Length of Visible Light 11h 43m
Length of Day
10h 54m
Full, 100% of the Moon is Illuminated
Feb 7
Full
Feb 7
Full
Feb 14
Last Quarter
Feb 21
New
Feb 29
First Quarter

Hourly Weather History & Observations

Time (EST) Temp. Dew Point Humidity Pressure Visibility Wind Dir Wind Speed Gust Speed Precip Events Conditions
12:53 AM 63.0 °F 57.9 °F 84% 30.12 in 10.0 mi ENE 6.9 mph - N/A   Overcast
1:53 AM 63.0 °F 57.9 °F 84% 30.11 in 10.0 mi ENE 6.9 mph - N/A   Overcast
2:53 AM 63.0 °F 57.9 °F 84% 30.11 in 10.0 mi NNE 5.8 mph - N/A   Overcast
3:53 AM 62.1 °F 57.9 °F 86% 30.11 in 10.0 mi NNE 5.8 mph - N/A   Overcast
4:53 AM 62.1 °F 57.0 °F 84% 30.10 in 10.0 mi NE 6.9 mph - N/A   Overcast
5:53 AM 60.1 °F 57.0 °F 90% 30.10 in 10.0 mi NNE 8.1 mph - N/A   Overcast
6:00 AM 60.8 °F 55.4 °F 82% 30.10 in 10.0 mi NNE 6.9 mph - N/A   Overcast
6:53 AM 59.0 °F 55.9 °F 90% 30.11 in 10.0 mi ENE 6.9 mph - N/A   Overcast
7:04 AM 60.8 °F 55.4 °F 82% 30.12 in 10.0 mi NNE 5.8 mph - N/A   Overcast
7:53 AM 60.1 °F 55.0 °F 83% 30.12 in 10.0 mi NE 4.6 mph - N/A   Overcast
8:53 AM 60.1 °F 55.0 °F 83% 30.14 in 10.0 mi NE 6.9 mph - N/A   Overcast
9:53 AM 60.1 °F 54.0 °F 80% 30.15 in 10.0 mi NE 8.1 mph - N/A   Overcast
10:53 AM 60.1 °F 54.0 °F 80% 30.17 in 10.0 mi NNE 5.8 mph - N/A   Overcast
11:53 AM 61.0 °F 53.1 °F 75% 30.16 in 10.0 mi ENE 6.9 mph - N/A   Overcast
12:26 PM 62.6 °F 51.8 °F 68% 30.14 in 10.0 mi East 6.9 mph - N/A   Mostly Cloudy
12:53 PM 62.1 °F 52.0 °F 70% 30.14 in 10.0 mi Calm Calm - N/A   Scattered Clouds
1:53 PM 64.0 °F 52.0 °F 65% 30.10 in 10.0 mi North 6.9 mph - 0.00 in   Scattered Clouds
2:53 PM 66.9 °F 51.1 °F 57% 30.09 in 10.0 mi North 6.9 mph - 0.00 in   Scattered Clouds
3:53 PM 68.0 °F 51.1 °F 55% 30.09 in 10.0 mi NNE 5.8 mph - N/A   Partly Cloudy
4:53 PM 68.0 °F 51.1 °F 55% 30.09 in 10.0 mi NE 5.8 mph - N/A   Scattered Clouds
5:53 PM 64.9 °F 48.9 °F 56% 30.08 in 10.0 mi ENE 5.8 mph - N/A   Partly Cloudy
6:53 PM 60.1 °F 48.9 °F 67% 30.09 in 9.0 mi ENE 4.6 mph - N/A   Partly Cloudy
7:53 PM 57.0 °F 48.9 °F 74% 30.12 in 10.0 mi Calm Calm - N/A   Clear
8:53 PM 52.0 °F 48.0 °F 86% 30.13 in 10.0 mi North - - N/A   Clear
9:53 PM 50.0 °F 46.9 °F 89% 30.14 in 9.0 mi Calm Calm - N/A   Clear
10:53 PM 46.9 °F 45.0 °F 93% 30.15 in 7.0 mi Calm Calm - N/A   Clear
11:53 PM 48.0 °F 45.0 °F 89% 30.16 in 9.0 mi Calm Calm - N/A   Clear